Location: *
(47.8307°S, 178.3954°E)
Time: 06:48:59
(UTC+00:00)

Cosmos 1745 Rocket - Pass Details

Date: 12 August 2024
Orbit: 952 x 997 km, 83.0° (Epoch: 18 September)

Event Time Altitude Azimuth Distance (km) Brightness Sun altitude
Exits shadow 16:13:13 49° 14° (NNE) 1,275 4.5 -30.5°
Maximum altitude 16:15:02 75° 85° (E) 1,042 4.1 -30.2°
Drops below altitude 10° 16:21:28 10° 168° (SSE) 2,800 6.6 -29.2°
Sets 16:24:01 0° 169° (S) 3,758 7.3 -28.7°
